Hourly Data Report for October 10, 2015

All times are specified in Local Standard Time (LST). Add 1 hour to adjust for Daylight Saving Time where and when it is observed.

CORAL HARBOUR A
NUNAVUT

64°11'36.000" N
83°21'34.000" W
62.20 m
2301002
71915
YZS

Download Data

Hourly Data (October 2015)
Hourly Data Report for October 10, 2015
Temp Definition
°C
Dew Point Temp Definition
°C
Rel Hum Definition
%
Wind Dir Definition
10's deg

Wind Spd Definition
km/h
Visibility Definition
km
Stn Press Definition
kPa
Hmdx Definition


Wind Chill Definition


Weather Definition


TIME
00:00 Legend Double Dagger -7.1 -9.7 82 35 26 24.1 99.67   -15 Snow
01:00 Legend Double Dagger -7.7 -10.3 82 35 24 24.1 99.66   -16 Snow
02:00 Legend Double Dagger -8.7 -10.9 84 34 23 24.1 99.68   -17 LegendNANA
03:00 Legend Double Dagger -9.6 -11.7 85 33 16 24.1 99.68   -16 LegendNANA
04:00 Legend Double Dagger -9.7 -12.1 83 33 21 24.1 99.70   -18 Mainly Clear
05:00 Legend Double Dagger -10.0 -12.1 85 33 21 24.1 99.74   -18 LegendNANA
06:00 Legend Double Dagger -10.1 -12.3 84 35 19 24.1 99.78   -18 LegendNANA
07:00 Legend Double Dagger -10.0 -11.8 87 34 19 24.1 99.80   -18 Mainly Clear
08:00 Legend Double Dagger -9.5 -11.3 87 34 18 24.1 99.77   -17 LegendNANA
09:00 Legend Double Dagger -8.1 -10.3 84 33 17 24.1 99.76   -15 LegendNANA
10:00 Legend Double Dagger -5.2 -8.0 81 36 17 24.1 99.74   -11 Mainly Clear
11:00 Legend Double Dagger -3.8 -7.1 78 34 23 24.1 99.74   -11 LegendNANA
12:00 Legend Double Dagger -3.6 -8.1 71 1 24 24.1 99.76   -10 LegendNANA
13:00 Legend Double Dagger -4.0 -8.5 71 34 31 24.1 99.75   -12 Mostly Cloudy
14:00 Legend Double Dagger -4.4 -9.5 68 35 31 24.1 99.76   -12 LegendNANA
15:00 Legend Double Dagger -5.3 -10.1 69 35 36 24.1 99.74   -14 LegendNANA
16:00 Legend Double Dagger -5.9 -10.3 71 35 31 24.1 99.72   -14 Mainly Clear
17:00 Legend Double Dagger -6.9 -10.8 74 34 30 24.1 99.72   -15 LegendNANA
18:00 Legend Double Dagger -8.6 -11.5 80 34 18 24.1 99.74   -16 LegendNANA
19:00 Legend Double Dagger -9.5 -12.2 81 34 20 24.1 99.69   -17 Mainly Clear
20:00 Legend Double Dagger -10.1 -12.8 81 32 14 24.1 99.67   -17 LegendNANA
21:00 Legend Double Dagger -10.8 -13.3 82 29 12 24.1 99.66   -17 LegendNANA
22:00 Legend Double Dagger -11.1 -13.8 81 32 10 24.1 99.64   -17 Clear
23:00 Legend Double Dagger -10.7 -13.4 81 34 6 24.1 99.64   -14 LegendNANA

Notes on Data Quality.

Legend

  • E = Estimated
  • M = Missing
  • NA = Not Available
  • ‡ = Partner data that is not subject to review by the National Climate Archives
Date modified: